FW7284 Weather Reports


Display with metric or nautical units.
time (UTC)temp
F
wind
direction
speed
MPH
gust
MPH
rain 1hr
in
rain 24hr
in
rain mn
in
humidity
%
barometer
mb
20260508011532 50 251 4.0 7.0 0.00 0.90 0.90 92 1001.5
20260508010030 50 220 2.0 6.0 0.00 0.90 0.90 92 1001.9
20260508004531 49 222 2.0 6.0 0.00 0.90 0.90 91 1001.8
20260508003028 49 221 2.0 6.0 0.00 0.90 0.90 91 1001.8
20260508001530 49 190 2.0 9.0 0.00 0.90 0.90 91 1001.9
20260508000029 49 212 2.0 10.0 0.00 0.90 0.90 91 1002.0
20260507234542 50 175 3.0 10.0 0.00 0.90 0.90 91 1002.1
20260507233030 50 189 3.0 8.0 0.00 0.90 0.90 91 1001.9
20260507231528 51 176 4.0 9.0 0.00 0.90 0.90 91 1002.4
20260507230030 51 213 3.0 12.0 0.00 0.90 0.90 91 1002.2
20260507224530 51 171 5.0 15.0 0.00 0.90 0.90 91 1002.5
20260507223030 51 253 6.0 14.0 0.00 0.90 0.90 91 1002.4
20260507221534 51 213 4.0 11.0 0.00 0.90 0.90 91 1002.6
20260507220036 51 196 7.0 17.0 0.00 0.90 0.90 91 1002.5
20260507214528 50 209 8.0 15.0 0.02 0.90 0.90 91 1002.5
20260507213031 49 210 6.0 16.0 0.10 0.90 0.90 91 1002.1
20260507211534 49 173 10.0 21.0 0.18 0.90 0.90 90 1001.6
20260507210033 50 180 7.0 19.0 0.25 0.90 0.90 90 1002.3
20260507204531 51 202 5.0 11.0 0.35 0.88 0.88 90 1003.1
20260507203030 51 193 6.0 14.0 0.43 0.80 0.80 90 1003.4
20260507201528 51 177 3.0 10.0 0.42 0.70 0.70 90 1004.0
20260507200027 51 231 5.0 12.0 0.40 0.63 0.63 90 1004.7
20260507194545 52 239 8.0 15.0 0.32 0.51 0.51 90 1004.9
20260507193029 52 208 7.0 17.0 0.25 0.36 0.36 89 1004.7
20260507191530 52 214 8.0 20.0 0.18 0.28 0.28 89 1004.6
20260507190040 53 185 8.0 24.0 0.14 0.23 0.23 89 1004.6
20260507184541 53 206 9.0 23.0 0.10 0.18 0.18 88 1004.8
20260507183030 54 190 8.0 21.0 0.02 0.11 0.11 87 1005.2
20260507181532 54 144 8.0 18.0 0.00 0.09 0.09 86 1004.8
20260507180030 56 156 8.0 18.0 0.00 0.08 0.08 85 1004.8
20260507174533 57 178 6.0 16.0 0.00 0.08 0.08 85 1004.9
20260507173042 56 183 6.0 13.0 0.00 0.08 0.08 86 1005.2
20260507171530 55 203 9.0 23.0 0.00 0.08 0.08 86 1005.5
20260507170030 55 179 9.0 26.0 0.00 0.08 0.08 86 1005.9
20260507164541 55 178 11.0 26.0 0.00 0.08 0.08 86 1006.3
20260507163030 55 162 9.0 28.0 0.00 0.08 0.08 85 1006.5
20260507161539 56 162 9.0 18.0 0.00 0.08 0.08 85 1007.1
20260507160030 56 165 10.0 27.0 0.00 0.08 0.08 86 1007.4
20260507154528 56 155 11.0 22.0 0.00 0.08 0.08 87 1007.5
20260507153039 56 163 10.0 20.0 0.00 0.08 0.08 86 1008.0
20260507151532 55 197 10.0 28.0 0.00 0.08 0.08 86 1008.6
20260507150033 55 204 9.0 21.0 0.00 0.08 0.08 87 1008.5
20260507144535 55 192 9.0 21.0 0.00 0.08 0.08 88 1009.0
20260507143028 55 206 8.0 20.0 0.00 0.08 0.08 88 1009.5
20260507141532 55 171 9.0 27.0 0.00 0.08 0.08 88 1009.6
20260507140030 54 218 10.0 21.0 0.00 0.08 0.08 88 1009.9
20260507134528 54 150 10.0 27.0 0.00 0.08 0.08 88 1009.9
20260507133029 55 178 11.0 26.0 0.00 0.08 0.08 88 1010.2
20260507131530 55 161 7.0 21.0 0.00 0.08 0.08 89 1010.0
20260507130038 55 194 7.0 21.0 0.00 0.08 0.08 90 1009.5
20260507124537 54 202 8.0 25.0 0.00 0.08 0.08 90 1009.8
20260507123028 54 180 12.0 29.0 0.00 0.08 0.08 90 1010.2
20260507121528 54 169 12.0 27.0 0.00 0.08 0.08 90 1010.7
20260507120030 53 161 8.0 21.0 0.00 0.08 0.08 90 1010.7
20260507114552 53 169 11.0 27.0 0.00 0.08 0.08 90 1011.6
20260507113050 53 157 12.0 29.0 0.00 0.08 0.08 91 1011.6
20260507111536 52 225 7.0 29.0 0.00 0.08 0.08 91 1011.6
20260507110030 52 170 9.0 23.0 0.00 0.08 0.08 91 1011.5
20260507104539 52 172 10.0 24.0 0.00 0.08 0.08 91 1011.7
20260507103027 51 196 8.0 22.0 0.00 0.08 0.08 91 1012.2
20260507101530 52 194 6.0 17.0 0.00 0.08 0.08 91 1012.2
20260507100029 52 177 6.0 13.0 0.00 0.08 0.08 91 1012.0
20260507094532 52 157 6.0 13.0 0.03 0.07 0.07 91 1012.5
20260507093034 52 184 8.0 16.0 0.05 0.07 0.07 91 1012.8
20260507091528 52 159 6.0 12.0 0.06 0.07 0.07 91 1012.5
20260507090027 52 162 5.0 12.0 0.07 0.07 0.07 91 1012.7
20260507084539 51 206 6.0 16.0 0.03 0.03 0.03 90 1012.7
20260507083028 51 187 7.0 15.0 0.02 0.02 0.02 90 1012.5
20260507081535 52 164 6.0 14.0 0.01 0.01 0.01 90 1012.7
20260507080029 52 160 4.0 16.0 0.00 0.00 0.00 90 1013.1
20260507074532 52 185 8.0 14.0 0.00 0.00 0.00 90 1013.6
20260507073030 52 202 6.0 19.0 0.00 0.00 0.00 90 1013.6
20260507071528 52 181 5.0 12.0 0.00 0.00 0.00 89 1013.8
20260507070030 52 187 5.0 14.0 0.00 0.00 0.00 89 1013.8
20260507064530 52 217 5.0 11.0 0.00 0.00 0.00 89 1014.0
20260507063028 53 210 4.0 10.0 0.00 0.00 0.00 89 1014.2
20260507061529 53 217 5.0 11.0 0.00 0.00 0.00 89 1014.3
20260507060028 53 204 5.0 12.0 0.00 0.00 0.00 89 1014.7
20260507054530 53 189 7.0 15.0 0.00 0.00 0.00 89 1014.7
20260507053028 53 240 7.0 17.0 0.00 0.00 0.00 89 1014.8
20260507051528 53 201 7.0 16.0 0.00 0.00 0.00 89 1015.2
20260507050030 53 220 7.0 19.0 0.00 0.00 0.00 89 1015.6
20260507044532 53 189 7.0 15.0 0.00 0.00 0.00 89 1015.7
20260507043030 53 223 6.0 16.0 0.00 0.00 0.00 89 1016.2
20260507041528 53 221 7.0 17.0 0.00 0.00 0.00 89 1016.3
20260507040030 52 245 5.0 10.0 0.00 0.00 0.00 88 1016.6
20260507034535 52 234 5.0 14.0 0.00 0.00 0.00 88 1016.7
20260507033028 53 263 6.0 14.0 0.00 0.00 0.00 88 1017.1
20260507031529 53 264 6.0 10.0 0.00 0.00 0.00 87 1017.2
20260507030028 54 200 5.0 15.0 0.00 0.00 0.00 87 1017.1
20260507024530 54 185 7.0 16.0 0.00 0.00 0.00 87 1017.3
20260507023028 53 190 8.0 17.0 0.00 0.00 0.00 88 1017.3
20260507021528 52 237 7.0 15.0 0.00 0.00 0.00 87 1017.3
20260507020045 52 258 6.0 10.0 0.00 0.00 0.00 86 1017.4
20260507014527 53 252 5.0 12.0 0.00 0.00 0.00 85 1017.4
20260507013028 54 265 7.0 15.0 0.00 0.00 0.00 84 1017.6